Location: Unspecified
(50.7693°N, 0.0000°E)
Time: 04:45:04
(UTC+00:00)

Vanguard 1 Rocket - Pass Details

Date: 28 June 2019
Orbit: 651 x 4225 km, 34.3° (Epoch: 21 July)

Event Time Altitude Azimuth Distance (km) Brightness Sun altitude
Rises 20:05:09 0° 268° (W) 6,783 12.7 0.7°
Reaches altitude 10° 20:11:31 10° 257° (WSW) 5,066 11.8 -0.1°
Maximum altitude 20:20:38 23° 213° (SSW) 3,043 10.0 -1.2°
Drops below altitude 10° 20:26:36 10° 165° (SSE) 3,162 9.7 -2.0°
Enters shadow 20:29:14 - 150° (SSE) 3,711 9.9 -2.3°
Sets 20:29:28 0° 149° (SSE) 3,772 - -2.3°
